Millville, NJ

9:01 PM EST on November 18, 2017 (GMT -0500)
Millville Municipal

Weather History for KMIV - July, 2014

Change the Weather History Date:

Tuesday, July 1, 2014

  Actual Average Record
Temperature  
Mean Temperature 80 °F -  
Max Temperature 90 °F 83 °F 98 °F (1964)
Min Temperature 71 °F 63 °F 37 °F (1996)
Cooling Degree Days 16    
Growing Degree Days 30 (Base 50)    
Moisture  
Dew Point 70 °F    
Average Humidity 75    
Maximum Humidity 93    
Minimum Humidity 52    
Precipitation  
Precipitation 0.00 in - - ()
Sea Level Pressure  
Sea Level Pressure 29.92 in    
Wind  
Wind Speed 4 mph (South)    
Max Wind Speed 13 mph    
Max Gust Speed 21 mph    
Visibility 10 miles    
Events      
Averages and records for this station are not official NWS values.
T = Trace of Precipitation, MM = Missing Value Source: NWS Daily Summary

Daily Weather History Graph

Daily Weather History Graph

Search for Another Location

Airport or City:

Trip Planner

Search our weather history database for the weather conditions in past years. The results will help you decide how hot, cold, wet, or windy it might be!

Date:

Astronomy

Jul. 01, 2014 Rise Set
Actual Time 5:37 AM EDT 8:31 PM EDT
Civil Twilight 5:04 AM EDT 9:03 PM EDT
Nautical Twilight 4:24 AM EDT 9:43 PM EDT
Astronomical Twilight 3:37 AM EDT 10:30 PM EDT
Moon 9:41 AM EDT (7/1) 10:54 PM EDT (7/1)
Length of Visible Light 15h 58m
Length of Day
14h 53m
Waxing Crescent, 16% of the Moon is Illuminated
Jul 1
Waxing Crescent
Jul 5
First Quarter
Jul 12
Full
Jul 18
Last Quarter
Jul 26
New

Hourly Weather History & Observations

Time (EDT) Temp. Heat Index Dew Point Humidity Pressure Visibility Wind Dir Wind Speed Gust Speed Precip Events Conditions
1:54 AM 72.0 °F - 68.0 °F 87% 29.98 in 10.0 mi Variable 3.5 mph - N/A   Clear
2:54 AM 71.1 °F - 68.0 °F 90% 29.96 in 10.0 mi Calm Calm - N/A   Clear
3:54 AM 72.0 °F - 69.1 °F 91% 29.94 in 10.0 mi South 3.5 mph - N/A   Mostly Cloudy
4:54 AM 72.0 °F - 69.1 °F 91% 29.94 in 10.0 mi Calm Calm - N/A   Mostly Cloudy
5:54 AM 72.0 °F - 70.0 °F 93% 29.94 in 10.0 mi Calm Calm - N/A   Partly Cloudy
6:54 AM 73.9 °F - 71.1 °F 91% 29.96 in 10.0 mi Variable 3.5 mph - N/A   Scattered Clouds
7:10 AM 73.9 °F - 71.1 °F 91% 29.97 in 10.0 mi SW 3.5 mph - N/A   Scattered Clouds
7:54 AM 77.0 °F - 72.0 °F 84% 29.96 in 10.0 mi Variable 5.8 mph - N/A   Overcast
8:54 AM 80.1 °F 83.6 °F 71.1 °F 74% 29.95 in 10.0 mi SW 6.9 mph - N/A   Scattered Clouds
9:54 AM 82.0 °F 85.5 °F 69.1 °F 65% 29.94 in 10.0 mi Variable 6.9 mph - N/A   Clear
11:54 AM 87.1 °F 92.0 °F 70.0 °F 57% 29.92 in 10.0 mi SW 9.2 mph - N/A   Clear
12:54 PM 88.0 °F 92.9 °F 70.0 °F 55% 29.91 in 10.0 mi South 8.1 mph 16.1 mph N/A   Clear
1:54 PM 90.0 °F 95.4 °F 70.0 °F 52% 29.88 in 10.0 mi SSE 10.4 mph 16.1 mph N/A   Clear
2:54 PM 88.0 °F 93.8 °F 71.1 °F 57% 29.88 in 10.0 mi SSE 12.7 mph 18.4 mph N/A   Clear
3:54 PM 87.1 °F 92.8 °F 71.1 °F 59% 29.88 in 10.0 mi South 9.2 mph 20.7 mph N/A   Clear
4:54 PM 84.9 °F 88.8 °F 69.1 °F 59% 29.87 in 10.0 mi South 9.2 mph 17.3 mph N/A   Clear
5:54 PM 84.0 °F 89.0 °F 71.1 °F 65% 29.88 in 10.0 mi North - - N/A   Clear
7:54 PM 80.1 °F 83.8 °F 72.0 °F 76% 29.88 in 10.0 mi Variable 4.6 mph - N/A   Clear
8:54 PM 78.1 °F - 71.1 °F 79% 29.88 in 10.0 mi Variable 6.9 mph - N/A   Clear
9:54 PM 78.1 °F - 70.0 °F 76% 29.88 in 10.0 mi Variable 5.8 mph - N/A   Clear
10:54 PM 77.0 °F - 70.0 °F 79% 29.88 in 10.0 mi Variable 3.5 mph - N/A   Clear
11:54 PM 75.9 °F - 70.0 °F 82% 29.89 in 10.0 mi Calm Calm - N/A   Clear